Regional Weather Roundup
Issued by NWS Goodland, KS

Home | Current Version | Previous Version | Graphics & Text | Print | Product List | Glossary On
Versions: 1 2 3 4 5 6 7 8 9 10 11 12 13 14 15 16 17 18 19 20 21 22 23 24 25 26 27 28 29 30 31 32 33 34 35 36 37 38 39 40 41 42 43 44 45 46 47 48 49 50
000
ASUS43 KGLD 281208
RWRGLD

GOODLAND FORECAST AREA HOURLY WEATHER ROUNDUP
NATIONAL WEATHER SERVICE GOODLAND KS
500 AM MST WED JAN 28 2015

...OFFICIAL OBSERVATIONS...

CITY           SKY/WX    TMP DP  RH WIND       PRES   REMARKS
GOODLAND KS    PTCLDY    41  29  62 NW14      29.91R
HILL CITY KS   CLEAR     35  28  75 W6        29.82S
IMPERIAL NEB   PTCLDY    42  29  59 NW10      29.89R
MCCOOK NEB     CLEAR     32  27  81 W10       29.85S
AKRON CO       MOCLDY    37  28  70 W16       29.96R
BURLINGTON CO  PTCLDY    37  29  72 NW9       29.94R
LIMON CO       MOCLDY    33  25  72 NW7       30.00R
$$

...UNOFFICIAL OBSERVATIONS...

CITY           SKY/WX    TMP DP  RH WIND       PRES   REMARKS
COLBY KS       CLEAR     43  34  70 NW18      29.87R
GOVE KS          N/A     34  32  92 MISG        N/A
NORTON KS      CLEAR     36  27  69 NW9       29.80S
SHARON SPRINGS   N/A     42  30  63 N16         N/A
KIT CARSON CO    N/A     45  29  52 MISG        N/A
YUMA CO          N/A     33  26  77 N6          N/A
$$



USA.gov is the U.S. government's official web portal to all federal, state and local government web resources and services.